TAM3974 SBGR-SBRJ

Flight info

Callsign TAM3974
Flight time N/A
Altitude 19000
Route NIBRU UZ171 KEVUN
Aircraft A320/M-SDE3FGHIRWY/LB1

Departure

Time 2026-05-05 12:56
Airport São Paulo/Guarulhos–Governor André Franco Montoro International Airport (SBGR)

Arrival

Time N/A
Airport Santos Dumont Airport (SBRJ)
Time Latitude Longitude Altitude Speed Heading
2026-05-05 12:29 -23.42839 -46.47949 2460 ft 0 kts 265°
2026-05-05 12:50 -23.42838 -46.47934 2460 ft 4 kts 265°
2026-05-05 12:50 -23.42835 -46.47905 2458 ft 4 kts 262°
2026-05-05 12:50 -23.42830 -46.47877 2453 ft 4 kts 246°
2026-05-05 12:50 -23.42816 -46.47856 2461 ft 4 kts 192°
2026-05-05 12:51 -23.42808 -46.47854 2456 ft 0 kts 169°
2026-05-05 12:53 -23.42815 -46.47853 2456 ft 2 kts 169°
2026-05-05 12:53 -23.42862 -46.47843 2454 ft 13 kts 169°
2026-05-05 12:53 -23.42964 -46.47823 2455 ft 16 kts 170°
2026-05-05 12:53 -23.43077 -46.47799 2451 ft 16 kts 188°
2026-05-05 12:54 -23.43168 -46.48019 2458 ft 18 kts 255°
2026-05-05 12:54 -23.43205 -46.48146 2461 ft 17 kts 253°
2026-05-05 12:54 -23.43237 -46.48275 2462 ft 19 kts 256°
2026-05-05 12:55 -23.43316 -46.48351 2462 ft 15 kts 151°
2026-05-05 12:55 -23.43407 -46.48293 2453 ft 10 kts 109°
2026-05-05 12:55 -23.43396 -46.48206 2459 ft 13 kts 73°
2026-05-05 12:55 -23.43359 -46.48068 2455 ft 39 kts 73°
2026-05-05 12:56 -23.43213 -46.47532 2451 ft 105 kts 73°
2026-05-05 12:56 -23.42952 -46.46590 2468 ft 152 kts 72°
2026-05-05 12:56 -23.42645 -46.45487 3003 ft 153 kts 72°
2026-05-05 12:56 -23.42302 -46.44407 3581 ft 156 kts 70°
2026-05-05 12:57 -23.41991 -46.43179 3886 ft 173 kts 76°
2026-05-05 12:57 -23.41732 -46.41881 4299 ft 184 kts 77°
2026-05-05 12:57 -23.41550 -46.40415 4589 ft 206 kts 87°
2026-05-05 12:57 -23.41688 -46.38782 4859 ft 232 kts 101°
2026-05-05 12:58 -23.42039 -46.36973 5244 ft 256 kts 102°
2026-05-05 12:58 -23.42453 -46.35036 5948 ft 267 kts 103°
2026-05-05 12:58 -23.42894 -46.33018 6655 ft 280 kts 104°
2026-05-05 12:58 -23.43363 -46.30916 7374 ft 290 kts 104°
2026-05-05 12:59 -23.43847 -46.28797 8298 ft 289 kts 105°
2026-05-05 12:59 -23.44345 -46.26673 9300 ft 287 kts 105°
2026-05-05 12:59 -23.44841 -46.24559 10231 ft 289 kts 104°
2026-05-05 13:00 -23.45457 -46.19920 10855 ft 333 kts 97°
2026-05-05 13:00 -23.45715 -46.17336 11173 ft 350 kts 97°
2026-05-05 13:01 -23.46571 -46.11437 12638 ft 360 kts 102°
2026-05-05 13:01 -23.47038 -46.08745 13388 ft 361 kts 101°
2026-05-05 13:01 -23.47458 -46.06155 14694 ft 341 kts 101°
2026-05-05 13:01 -23.47856 -46.03662 15979 ft 320 kts 101°
2026-05-05 13:02 -23.48224 -46.01380 17237 ft 300 kts 102°
2026-05-05 13:02 -23.48577 -45.99220 18414 ft 285 kts 102°
2026-05-05 13:02 -23.48940 -45.97047 18691 ft 302 kts 103°
2026-05-05 13:02 -23.49337 -45.94717 18811 ft 322 kts 103°
2026-05-05 13:03 -23.49761 -45.92248 18926 ft 341 kts 102°
2026-05-05 13:03 -23.50204 -45.89649 19041 ft 359 kts 102°
2026-05-05 13:03 -23.50665 -45.86917 19186 ft 376 kts 102°
2026-05-05 13:03 -23.51145 -45.84051 19247 ft 394 kts 102°
2026-05-05 13:04 -23.51647 -45.81042 19258 ft 413 kts 102°
2026-05-05 13:04 -23.52174 -45.77872 19248 ft 427 kts 102°
2026-05-05 13:04 -23.52699 -45.74700 19247 ft 431 kts 102°
2026-05-05 13:04 -23.53236 -45.71454 19247 ft 432 kts 102°
2026-05-05 13:05 -23.53768 -45.68240 19243 ft 432 kts 102°
2026-05-05 13:05 -23.54302 -45.65014 19244 ft 432 kts 102°
2026-05-05 13:05 -23.54831 -45.61823 19242 ft 432 kts 102°
2026-05-05 13:05 -23.55365 -45.58598 19242 ft 432 kts 102°
2026-05-05 13:06 -23.55900 -45.55370 19240 ft 432 kts 102°
2026-05-05 13:06 -23.56433 -45.52156 19234 ft 432 kts 102°
2026-05-05 13:06 -23.56883 -45.48912 19225 ft 433 kts 96°
2026-05-05 13:06 -23.56872 -45.45621 19231 ft 434 kts 86°
2026-05-05 13:07 -23.56366 -45.42398 19231 ft 436 kts 78°
2026-05-05 13:07 -23.55667 -45.39143 19231 ft 436 kts 78°
2026-05-05 13:07 -23.54992 -45.35963 19228 ft 436 kts 78°
2026-05-05 13:07 -23.54311 -45.32743 19222 ft 436 kts 78°
2026-05-05 13:08 -23.53631 -45.29527 19226 ft 436 kts 78°
2026-05-05 13:08 -23.52953 -45.26326 19226 ft 436 kts 78°
2026-05-05 13:08 -23.52495 -45.24166 19214 ft 436 kts 78°
2026-05-05 13:08 -23.51810 -45.20956 19222 ft 436 kts 78°